Waarnemingen

Advertentie
Mijn weer
Berus, Duitsland (10704): temperatuur & dauwpunt: 20.09.2018 05:00:00 - 26.09.2018 05:00:00 (CEST)Berus, Duitsland (10704): temperatuur 5cm & temperatuur -5cm: 20.09.2018 05:00:00 - 26.09.2018 05:00:00 (CEST)Berus, Duitsland (10704): temperatuur -20cm & temperatuur -100cm: 20.09.2018 05:00:00 - 26.09.2018 05:00:00 (CEST)Berus, Duitsland (10704): windsnelheid & windstoten: 20.09.2018 05:00:00 - 26.09.2018 05:00:00 (CEST)Berus, Duitsland (10704): windrichting: 20.09.2018 05:00:00 - 26.09.2018 05:00:00 (CEST)Berus, Duitsland (10704): luchtdruk: 20.09.2018 05:00:00 - 26.09.2018 05:00:00 (CEST)Berus, Duitsland (10704): zicht: 20.09.2018 05:00:00 - 26.09.2018 05:00:00 (CEST)Berus, Duitsland (10704): Zonneschijnduur: 20.09.2018 05:00:00 - 26.09.2018 05:00:00 (CEST)Berus, Duitsland (10704): neerslag: 20.09.2018 05:00:00 - 26.09.2018 05:00:00 (CEST)
Datum & Tijd tt [°C] td [°C] tt 5cm [°C] tt -5cm [°C] tt -20cm [°C] tt -100cm [°C] ff [km/u] ff [kn] fx [km/u] fx [kn] dd ppp [hPa] vv [km] sd [min] rr [mm]
26.09.2018 05:00:00 5,7 0,9 4,1 7,8 13,0 18,2 17 9 28 15 NO 1035,2 68 0 0,0
26.09.2018 04:00:00 6,1 1,1 4,6 8,1 13,2 18,3 20 11 26 14 NO 1035,0 68 0 0,0
26.09.2018 03:00:00 6,1 1,5 4,0 8,6 13,5 18,3 15 8 21 11 NO 1035,6 54 0 0,0
26.09.2018 02:00:00 6,9 1,7 5,0 9,0 13,8 18,3 16 8 20 11 NO 1036,4 66 0 0,0
26.09.2018 01:00:00 7,8 1,8 5,6 9,5 14,2 18,3 14 7 22 12 ONO 1036,5 67 0 0,0
26.09.2018 00:00:00 7,2 2,4 4,8 10,0 14,5 18,3 13 7 19 10 NO 1037,5 62 0 0,0
25.09.2018 23:00:00 7,4 2,5 5,6 10,7 14,8 18,3 15 8 23 12 NO 1037,5 58 0 0,0
25.09.2018 22:00:00 8,3 2,5 6,4 11,5 15,1 18,4 16 9 24 13 NO 1037,4 64 0 0,0
25.09.2018 21:00:00 9,4 2,6 7,6 12,6 15,3 18,4 17 9 23 12 NO 1037,0 60 0 0,0
25.09.2018 20:00:00 10,5 2,5 8,3 13,8 15,4 18,4 14 7 29 16 NO 1036,5 66 11 0,0
25.09.2018 19:00:00 12,1 2,5 10,7 15,5 15,4 18,4 16 9 34 18 NO 1036,1 70 60 0,0
25.09.2018 18:00:00 13,4 1,9 15,1 17,2 15,2 18,4 19 10 36 19 NO 1036,0 60 60 0,0
25.09.2018 17:00:00 13,9 0,7 17,1 18,0 14,8 18,4 17 9 37 20 ONO 1036,3 47 60 0,0
25.09.2018 16:00:00 14,3 1,5 17,3 18,2 14,3 18,4 19 11 36 20 NO 1036,9 44 60 0,0
25.09.2018 15:00:00 13,8 2,1 17,7 17,7 13,8 18,5 19 10 35 19 ONO 1037,3 52 60 0,0
25.09.2018 14:00:00 13,0 2,7 16,7 16,7 13,3 18,5 23 12 37 20 NO 1037,7 36 59 0,0
25.09.2018 13:00:00 12,1 2,2 16,1 15,1 12,9 18,5 21 11 36 19 NO 1038,0 49 60 0,0
25.09.2018 12:00:00 11,2 2,5 14,5 13,2 12,6 18,5 18 10 35 19 NO 1038,5 35 58 0,0
25.09.2018 11:00:00 9,8 4,0 12,8 11,1 12,5 18,5 18 10 27 15 NO 1038,4 35 60 0,0
25.09.2018 10:00:00 7,7 4,6 10,2 9,0 12,6 18,6 14 7 25 13 NO 1038,6 20 60 0,0
25.09.2018 09:00:00 6,1 4,0 6,0 7,7 12,8 18,6 18 10 24 13 NO 1038,3 22 48 0,0
25.09.2018 08:00:00 4,4 3,7 3,3 7,7 13,1 18,6 15 8 21 11 NNO 1038,2 15 6 0,0
25.09.2018 07:00:00 4,7 3,8 3,5 8,0 13,4 18,6 15 8 26 14 NNO 1038,2 16 0 0,0
25.09.2018 06:00:00 4,6 3,9 3,5 8,3 13,6 18,6 15 8 20 11 NNO 1037,9 13 0 0,0
25.09.2018 05:00:00 5,3 4,1 3,5 8,7 13,9 18,7 11 6 14 7 NNO 1038,0 23 0 0,0
25.09.2018 04:00:00 5,7 4,1 3,7 9,1 14,2 18,7 10 5 16 8 NNO 1038,0 31 0 0,0
25.09.2018 03:00:00 6,2 4,3 3,8 9,5 14,5 18,7 11 6 14 8 NNO 1037,9 45 0 0,0
25.09.2018 02:00:00 5,5 4,1 2,9 10,0 14,9 18,7 8 4 18 10 NNO 1038,0 45 0 0,0
25.09.2018 01:00:00 7,4 4,3 5,8 10,5 15,2 18,7 13 7 17 9 NNO 1037,5 64 0 0,0
25.09.2018 00:00:00 7,7 4,4 5,7 11,2 15,5 18,7 10 5 25 13 N 1037,3 70 0 0,0
24.09.2018 23:00:00 8,4 4,5 6,8 11,9 15,8 18,7 15 8 25 14 N 1036,7 70 0 0,0
24.09.2018 22:00:00 8,8 5,3 7,2 12,6 16,0 18,8 9 5 22 12 N 1036,7 70 0 0,0
24.09.2018 21:00:00 9,6 4,7 8,7 13,4 16,3 18,8 13 7 24 13 NNW 1036,0 70 0 0,0
24.09.2018 20:00:00 9,7 4,4 7,8 14,6 16,4 18,8 10 6 20 11 N 1035,4 70 4 0,0
24.09.2018 19:00:00 11,4 4,5 10,8 16,0 16,4 18,8 10 5 24 13 NNW 1034,7 70 51 0,0
24.09.2018 18:00:00 11,9 4,9 11,9 17,4 16,3 18,8 12 6 26 14 N 1034,2 70 22 0,0
24.09.2018 17:00:00 12,8 3,7 14,9 18,3 16,0 18,8 11 6 26 14 N 1034,1 42 24 0,0
24.09.2018 16:00:00 13,5 3,7 16,0 19,1 15,6 18,8 11 6 26 14 NW 1034,1 64 51 0,0
24.09.2018 15:00:00 13,4 3,6 17,9 18,4 15,1 18,8 11 6 27 15 NNW 1034,2 34 47 0,0
24.09.2018 14:00:00 13,4 3,0 18,4 17,6 14,7 18,8 14 7 29 16 N 1034,6 37 57 0,0
24.09.2018 13:00:00 12,2 3,7 15,7 16,3 14,3 18,9 16 8 28 15 NNO 1034,9 48 55 0,0
24.09.2018 12:00:00 11,6 3,5 15,7 14,5 14,0 18,9 13 7 28 15 N 1035,0 28 60 0,0
24.09.2018 11:00:00 10,3 4,7 14,3 12,2 13,9 18,9 9 5 20 11 N 1034,8 31 52 0,0
24.09.2018 10:00:00 8,7 5,9 10,4 10,5 14,1 18,9 9 5 22 12 N 1034,4 19 60 0,0
24.09.2018 09:00:00 7,2 5,5 7,7 9,3 14,3 18,9 6 4 16 9 NNW 1033,8 16 51 0,0
24.09.2018 08:00:00 5,4 5,2 3,5 9,3 14,6 18,9 0 0 16 9 N 1033,0 7 8 0,0
24.09.2018 07:00:00 5,5 5,3 4,7 9,7 14,9 19,0 10 6 16 9 WNW 1032,4 7 0 0,0
24.09.2018 06:00:00 6,2 5,5 5,0 10,2 15,2 19,0 9 5 15 8 NW 1031,2 19 0 0,0
24.09.2018 05:00:00 6,5 5,6 5,4 10,7 15,4 19,0 9 5 20 11 NW 1030,3 31 0 0,0
24.09.2018 04:00:00 7,0 5,9 5,8 11,2 15,7 19,0 13 7 25 13 NW 1029,3 41 0 0,0
24.09.2018 03:00:00 7,4 6,0 6,9 11,5 16,0 19,0 10 5 23 12 NW 1028,4 70 0 0,0
24.09.2018 02:00:00 7,5 6,1 6,9 12,0 16,3 19,0 12 7 22 12 NNW 1027,3 70 0 0,0
24.09.2018 01:00:00 7,7 5,8 6,9 12,6 16,5 19,0 14 8 35 19 NNW 1026,1 70 0 0,0
24.09.2018 00:00:00 8,8 6,9 8,7 13,2 16,8 19,0 15 8 30 16 NNW 1024,4 70 0 0,0
23.09.2018 23:00:00 9,0 7,3 8,8 13,6 17,1 19,0 14 8 29 16 NNW 1022,4 70 0 0,0
23.09.2018 22:00:00 9,4 7,7 9,2 14,2 17,3 19,1 14 8 41 22 N 1020,4 70 0 0,0
23.09.2018 21:00:00 10,1 8,6 9,6 15,0 17,5 19,1 20 11 40 22 NNW 1018,1 70 0 0,0
23.09.2018 20:00:00 10,8 9,6 10,5 15,8 17,7 19,1 24 13 55 30 NNW 1015,3 44 0 0,3
23.09.2018 19:00:00 12,2 11,5 12,1 16,7 17,8 19,1 19 10 49 27 WNW 1012,2 6 0 0,7
23.09.2018 18:00:00 14,1 13,3 13,8 17,3 17,8 19,1 19 11 68 37 WNW 1009,4 11 0 2,9
23.09.2018 17:00:00 15,7 15,5 15,5 18,1 17,7 19,1 45 24 90 48 W 1008,2 2,2 0 13,8
23.09.2018 16:00:00 18,4 17,5 17,9 18,3 17,6 19,1 58 32 85 46 ZW 1006,1 9 0 0,2
23.09.2018 15:00:00 18,2 17,7 18,0 18,2 17,5 19,1 42 23 66 36 ZW 1007,5 9 0 0,2
23.09.2018 14:00:00 18,5 17,5 18,0 18,2 17,3 19,1 43 23 66 36 ZW 1009,3 60 0 0,2
23.09.2018 13:00:00 17,9 17,6 18,1 17,7 17,2 19,2 37 20 61 33 ZW 1010,4 5 0 0,3
23.09.2018 12:00:00 17,9 17,5 18,0 17,1 17,1 19,2 41 22 67 36 ZW 1011,0 27 0 0,1
23.09.2018 11:00:00 17,2 16,7 17,0 16,7 17,0 19,2 42 23 66 35 ZW 1011,9 15 0 0,0
23.09.2018 10:00:00 16,7 16,4 16,6 16,1 16,9 19,2 38 20 64 35 ZW 1011,9 22 0 0,1
23.09.2018 09:00:00 15,9 15,7 15,7 15,7 16,9 19,2 35 19 56 30 ZW 1012,2 4,3 0 0,3
23.09.2018 08:00:00 15,9 15,5 15,5 15,3 16,9 19,2 33 18 58 31 ZW 1012,5 16 0 0,3
23.09.2018 07:00:00 15,1 14,6 14,7 14,9 17,0 19,2 36 19 55 30 ZW 1012,9 3,9 0 0,1
23.09.2018 06:00:00 14,3 13,6 13,8 14,6 17,1 19,2 35 19 52 28 ZW 1013,2 33 0 0,1
23.09.2018 05:00:00 12,1 11,8 11,9 14,4 17,3 19,2 23 13 31 17 ZW 1014,4 10 0 0,1
23.09.2018 04:00:00 10,9 10,9 10,9 14,5 17,4 19,3 15 8 20 11 ZZW 1015,8 0,1 0 0,6
23.09.2018 03:00:00 10,3 10,2 10,4 14,8 17,6 19,3 10 6 16 8 Z 1017,1 0,3 0 0,8
23.09.2018 02:00:00 10,2 9,9 10,2 15,0 17,7 19,3 6 3 16 9 ZO 1018,2 8 0 0,0
23.09.2018 01:00:00 10,2 9,2 10,0 15,3 17,9 19,3 5 3 11 6 O 1018,9 10 0 0,4
23.09.2018 00:00:00 10,5 9,4 10,2 15,7 18,1 19,3 3 2 16 9 O 1019,5 16 0 0,5
22.09.2018 23:00:00 11,2 8,6 10,3 16,1 18,2 19,3 7 4 16 8 ZW 1020,5 30 0 0,0
22.09.2018 22:00:00 11,3 8,0 10,5 16,5 18,4 19,3 7 4 9 5 ZW 1020,5 39 0 0,1
22.09.2018 21:00:00 12,2 7,0 11,5 17,0 18,5 19,3 9 5 17 9 WZW 1020,3 70 0 0,0
22.09.2018 20:00:00 12,4 7,1 10,7 17,9 18,5 19,3 12 7 18 10 WZW 1020,5 52 0 0,2
22.09.2018 19:00:00 14,4 5,5 13,2 18,8 18,5 19,3 13 7 31 17 WZW 1020,3 37 0 0,0
22.09.2018 18:00:00 15,1 4,4 15,3 19,6 18,4 19,3 14 8 25 13 WZW 1020,4 70 0 0,0
22.09.2018 17:00:00 15,5 4,7 16,1 20,4 18,1 19,3 12 7 31 17 WZW 1021,0 70 0 0,0
22.09.2018 16:00:00 15,7 5,7 17,3 21,0 17,8 19,3 20 11 37 20 ZW 1021,5 70 0 0,0
22.09.2018 15:00:00 16,5 5,5 19,0 21,2 17,3 19,3 18 10 34 18 WZW 1022,0 70 26 0,0
22.09.2018 14:00:00 15,7 5,3 18,6 20,4 16,8 19,3 21 12 36 19 ZZW 1022,3 58 46 0,0
22.09.2018 13:00:00 15,2 5,7 18,6 18,3 16,5 19,3 24 13 35 19 ZW 1022,7 49 53 0,0
22.09.2018 12:00:00 14,0 7,7 16,9 15,8 16,3 19,4 17 9 27 15 ZW 1023,6 51 58 0,0
22.09.2018 11:00:00 12,4 7,0 14,8 13,9 16,3 19,4 15 8 22 12 ZW 1024,2 39 28 0,0
22.09.2018 10:00:00 10,7 6,3 11,4 12,8 16,4 19,4 14 8 20 11 ZW 1024,1 60 31 0,0
22.09.2018 09:00:00 9,2 5,5 9,1 12,0 16,6 19,4 14 8 22 12 WZW 1024,4 60 0 0,0
22.09.2018 08:00:00 8,2 4,9 7,4 11,8 16,8 19,4 14 8 19 10 WZW 1024,6 61 0 0,0
22.09.2018 07:00:00 8,3 4,7 7,0 12,1 17,0 19,4 14 7 17 9 WZW 1023,8 58 0 0,0
22.09.2018 06:00:00 8,3 4,9 7,4 12,2 17,2 19,4 13 7 20 11 ZW 1023,4 67 0 0,0
22.09.2018 05:00:00 8,3 4,7 7,1 12,4 17,5 19,4 13 7 20 11 ZZW 1023,6 70 0 0,0
22.09.2018 04:00:00 9,0 4,6 7,8 12,7 17,7 19,4 14 8 22 12 WZW 1023,3 69 0 0,0
22.09.2018 03:00:00 9,3 4,3 8,0 12,9 18,0 19,4 13 7 28 15 WZW 1023,0 69 0 0,0
22.09.2018 02:00:00 9,9 4,2 8,6 13,3 18,3 19,4 19 10 32 17 WZW 1022,3 70 0 0,0
22.09.2018 01:00:00 10,1 4,6 8,7 13,7 18,6 19,4 14 8 31 17 WZW 1022,0 70 0 0,0
22.09.2018 00:00:00 10,9 5,0 9,7 14,2 18,9 19,4 18 10 29 16 WZW 1021,3 70 0 0,0
21.09.2018 23:00:00 11,1 5,4 9,9 14,6 19,2 19,4 16 9 23 12 WZW 1020,8 70 0 0,0
21.09.2018 22:00:00 11,9 5,1 10,5 15,1 19,5 19,4 14 8 36 20 WZW 1019,9 70 0 0,0
21.09.2018 21:00:00 12,7 5,4 11,3 15,8 19,7 19,4 22 12 38 21 W 1018,7 70 0 0,0
21.09.2018 20:00:00 12,9 5,9 11,6 16,7 19,9 19,4 20 11 35 19 WZW 1017,4 70 1 0,0
21.09.2018 19:00:00 13,3 5,6 12,4 17,8 20,1 19,3 22 12 48 26 WZW 1016,3 70 10 0,0
21.09.2018 18:00:00 14,4 10,7 14,3 18,8 20,2 19,3 23 12 41 22 W 1015,1 38 37 0,0
21.09.2018 17:00:00 13,5 12,1 14,0 18,8 20,3 19,3 23 12 40 22 WZW 1014,3 24 16 0,0
21.09.2018 16:00:00 12,3 11,6 12,9 18,4 20,4 19,3 22 12 37 20 WZW 1013,8 21 0 0,6
21.09.2018 15:00:00 11,6 10,9 11,7 19,0 20,5 19,3 19 11 49 26 W 1013,1 7 0 0,6
21.09.2018 14:00:00 15,7 14,4 15,3 19,8 20,6 19,3 29 16 52 28 WZW 1011,3 7 0 0,7
21.09.2018 13:00:00 17,6 13,6 16,5 20,2 20,6 19,3 29 16 57 31 WZW 1010,2 29 0 0,2
21.09.2018 12:00:00 19,4 11,8 19,4 20,3 20,5 19,3 37 20 56 30 ZW 1009,9 32 0 0,0
21.09.2018 11:00:00 19,5 11,5 19,7 19,9 20,6 19,3 34 19 52 28 ZW 1009,9 46 0 0,0
21.09.2018 10:00:00 19,2 12,3 19,8 19,5 20,6 19,3 27 15 44 24 ZW 1009,8 35 9 0,0
21.09.2018 09:00:00 18,6 12,6 18,9 19,0 20,8 19,3 24 13 36 19 ZW 1009,9 31 5 0,0
21.09.2018 08:00:00 17,7 12,5 16,5 18,9 20,9 19,3 17 9 27 15 ZW 1009,9 34 6 0,0
21.09.2018 07:00:00 17,5 12,4 16,2 19,1 21,1 19,3 16 9 23 12 ZZW 1009,6 31 0 0,0
21.09.2018 06:00:00 18,2 12,3 17,4 19,3 21,3 19,3 15 8 29 16 ZW 1010,4 36 0 0,0
21.09.2018 05:00:00 17,5 12,3 16,0 19,5 21,5 19,3 16 8 24 13 ZW 1011,0 35 0 0,0
21.09.2018 04:00:00 17,7 12,5 16,4 19,7 21,7 19,3 17 9 22 12 ZZW 1011,4 35 0 0,0
21.09.2018 03:00:00 17,8 12,7 16,4 20,1 21,9 19,3 16 9 22 12 ZZW 1012,0 35 0 0,0
21.09.2018 02:00:00 17,7 12,9 16,2 20,5 22,1 19,3 15 8 25 13 ZZW 1012,7 28 0 0,0
21.09.2018 01:00:00 18,8 13,3 17,6 20,9 22,3 19,3 16 8 23 12 ZZW 1012,8 30 0 0,0
21.09.2018 00:00:00 19,5 13,5 18,1 21,3 22,5 19,3 16 9 21 11 ZZW 1013,3 33 0 0,0
20.09.2018 23:00:00 19,8 13,4 18,0 21,9 22,8 19,3 14 8 18 10 ZZW 1013,9 34 0 0,0
20.09.2018 22:00:00 20,7 13,3 18,5 22,6 23,0 19,3 15 8 20 11 ZZW 1014,3 39 0 0,0
20.09.2018 21:00:00 19,6 13,3 16,7 23,5 23,1 19,3 12 7 16 8 ZZW 1014,7 35 0 0,0
20.09.2018 20:00:00 20,6 12,7 16,3 24,8 23,1 19,2 8 4 13 7 ZW 1015,1 38 2 0,0
20.09.2018 19:00:00 23,9 12,7 22,6 26,2 23,0 19,2 10 5 23 12 ZW 1015,1 48 60 0,0
20.09.2018 18:00:00 25,1 12,1 26,7 27,3 22,7 19,2 16 9 31 17 ZZW 1015,6 37 60 0,0
20.09.2018 17:00:00 25,9 11,0 29,2 27,7 22,3 19,2 21 11 33 18 ZW 1016,2 21 60 0,0
20.09.2018 16:00:00 26,4 12,2 30,9 27,3 21,8 19,2 15 8 38 20 WZW 1016,7 28 60 0,0
20.09.2018 15:00:00 25,6 11,8 30,2 26,4 21,3 19,2 18 10 32 17 ZW 1017,5 31 60 0,0
20.09.2018 14:00:00 24,5 11,5 28,8 25,0 20,9 19,2 23 12 37 20 ZW 1018,3 31 60 0,0
20.09.2018 13:00:00 23,7 12,0 28,6 23,4 20,5 19,2 19 10 37 20 WZW 1018,9 26 60 0,0
20.09.2018 12:00:00 23,1 12,4 26,8 21,6 20,3 19,2 22 12 35 19 WZW 1019,3 17 60 0,0
20.09.2018 11:00:00 21,5 13,1 24,9 19,9 20,3 19,2 12 6 17 9 ZW 1019,8 27 60 0,0
20.09.2018 10:00:00 19,9 13,1 22,4 18,5 20,4 19,2 8 5 11 6 ZW 1019,9 28 60 0,0
20.09.2018 09:00:00 18,1 12,6 18,9 18,0 20,6 19,2 8 4 12 7 WZW 1020,2 31 60 0,0
20.09.2018 08:00:00 15,7 12,1 13,2 18,2 20,9 19,2 9 5 13 7 WZW 1020,3 30 4 0,0
20.09.2018 07:00:00 15,5 12,2 12,9 18,5 21,1 19,2 10 6 13 7 ZW 1020,2 29 0 0,0
20.09.2018 06:00:00 16,1 12,4 12,8 19,0 21,3 19,2 8 4 8 5 WZW 1020,3 30 0 0,0
20.09.2018 05:00:00 16,8 12,9 12,7 19,4 21,6 19,2 6 4 8 4 ZW 1020,1 32 0 0,0

tt = temperatuur
td = dauwpunt
tt 5cm = temperatuur 5cm
tt -5cm = temperatuur -5cm
tt -20cm = temperatuur -20cm
tt -100cm = temperatuur -100cm
ff = windsnelheid
fx = windstoten
dd = windrichting
ppp = luchtdruk
vv = zicht
sd = Zonneschijnduur
rr = neerslag

Weerstations in de omgeving